Lapse_Rate
5.9 5.6 5.3 5.8 5.6 5.8 5.6 5.5 5.3 5.8 6.3 5.5 5.8 6.5 6.6 7.0 5.8 5.8 5.5 5.2 5.4 6.0 5.7 5.7 5.8 5.8 6.1 6.2 6.2 6.3 6.3 6.0 6.0 5.9 5.8 5.6 5.8 5.4 5.4 5.7 5.6 6.0 6.3 6.4
5.6 5.5 5.6 5.8 5.6 5.4 5.2 5.0 5.1 5.4 5.5 5.3 5.4 5.5 6.1 6.5 6.2 5.9 5.7 5.4 5.4 5.5 5.7 5.7 5.6 5.8 5.9 6.4 6.2 6.2 6.5 6.6 6.5 6.3 6.2 5.8 5.7 5.6 5.6 5.8 6.2 6.4 6.5 6.5
5.7 5.3 5.4 5.2 5.6 5.2 5.0 4.9 5.1 5.2 5.4 5.4 5.3 5.0 5.4 6.2 6.6 6.6 6.1 6.0 5.8 5.6 5.6 5.7 5.6 5.8 5.8 6.3 6.4 6.4 6.6 6.6 6.6 6.6 6.6 6.3 6.2 6.2 6.5 6.9 6.8 6.7 6.3 6.3
5.7 5.8 5.5 5.5 5.7 5.7 5.3 5.3 5.4 5.5 5.3 5.2 5.3 4.6 5.2 6.0 6.3 6.5 6.6 6.2 6.1 6.4 6.2 5.8 5.8 5.8 5.8 6.2 6.1 6.2 6.4 6.7 6.7 6.6 6.9 7.1 6.9 6.8 6.7 6.6 6.5 6.6 6.5 6.5
5.4 5.4 5.3 5.2 5.5 5.7 5.5 6.1 5.9 5.9 5.5 5.3 5.2 4.7 4.1 5.4 5.7 6.8 7.2 7.1 6.7 6.9 6.8 6.4 6.0 5.9 5.7 5.7 6.0 6.1 6.1 6.3 6.6 6.6 6.7 7.1 7.4 7.3 6.9 6.8 6.8 6.9 6.9 6.8
6.0 6.1 5.8 5.6 6.1 6.2 6.3 6.1 6.1 6.0 5.7 5.2 4.7 4.7 3.9 4.7 5.9 7.0 7.5 7.4 6.9 6.6 6.5 6.6 6.3 6.3 6.2 5.8 5.7 6.0 5.8 6.1 6.3 6.4 6.7 6.9 7.1 7.3 7.3 7.2 7.0 6.8 6.7 6.7
5.2 5.4 5.4 5.2 5.4 5.7 5.4 5.7 5.7 5.9 6.0 4.3 5.1 5.1 3.7 4.4 5.3 6.9 7.4 7.3 7.0 6.9 7.0 6.9 7.1 6.9 6.9 6.4 6.2 6.0 6.1 5.9 6.1 6.3 6.5 6.7 6.7 6.6 7.0 7.1 7.0 6.7 6.7 6.8
4.9 5.1 5.1 4.8 5.4 5.3 5.2 5.9 6.1 5.5 4.7 4.1 4.9 4.7 4.1 4.6 5.2 6.6 7.2 7.3 7.0 6.9 6.8 6.8 6.8 6.8 6.7 6.4 6.3 6.1 5.8 6.0 6.0 6.2 6.4 6.4 6.5 6.5 6.5 6.7 6.7 6.7 6.7 6.6
5.2 5.1 6.0 5.8 6.3 6.1 5.6 5.9 6.2 7.0 6.3 5.5 6.2 5.0 4.8 4.8 5.3 6.4 7.1 7.3 7.4 7.1 6.9 6.9 6.8 6.6 6.5 6.3 6.4 6.3 5.9 6.0 6.0 6.2 6.2 6.3 6.3 6.4 6.7 6.6 6.6 6.7 6.7 6.8
5.5 5.6 5.9 6.3 6.3 6.3 6.1 6.4 6.4 6.6 5.3 4.8 5.1 4.6 4.7 5.5 6.3 6.7 6.9 6.9 7.0 7.1 7.3 7.1 6.6 6.4 6.5 6.6 6.7 6.5 6.0 5.9 6.1 6.5 6.9 6.7 6.7 6.8 6.7 6.7 6.5 6.7 6.8 6.9
5.0 5.7 5.9 6.3 6.4 5.6 5.9 6.2 6.1 6.6 6.8 5.8 4.6 5.5 5.7 6.1 6.7 7.2 7.3 6.8 6.8 6.7 7.1 7.0 6.6 6.7 6.8 6.7 6.7 6.6 6.5 6.2 6.1 6.2 6.3 6.3 6.3 6.4 6.4 6.2 6.3 6.6 6.8 7.1
5.6 5.6 5.6 5.8 6.5 6.5 6.6 6.3 6.6 6.7 6.3 6.1 6.0 5.8 6.1 6.7 7.0 7.1 7.3 6.9 6.4 6.6 6.5 6.6 6.8 6.9 7.1 6.9 6.7 6.7 6.5 6.5 6.3 6.2 6.1 6.1 6.2 6.3 6.3 6.4 6.5 6.4 6.4 6.5
5.8 5.8 5.7 6.2 6.3 6.1 5.8 5.7 6.0 6.6 7.0 6.6 6.2 5.4 6.8 7.7 7.7 7.4 7.2 6.7 6.4 6.4 6.6 6.8 6.9 6.9 6.8 6.8 6.8 6.7 6.6 6.5 6.5 6.4 6.3 6.3 6.4 6.5 6.6 6.5 6.4 6.4 6.2 6.4
6.7 6.6 6.3 6.6 6.5 6.3 5.8 5.8 6.2 6.5 6.7 6.2 6.3 6.3 6.9 7.7 8.2 7.9 7.8 7.0 6.4 6.3 6.4 6.6 6.6 6.7 6.6 6.6 6.6 6.6 6.6 6.6 6.6 6.6 6.6 6.6 6.7 6.7 6.5 6.4 6.4 6.5 6.4 6.3
6.8 6.6 6.5 6.2 6.6 7.0 6.6 6.1 6.4 6.2 6.2 6.6 6.2 6.3 6.9 7.4 8.2 8.2 8.2 7.6 7.1 6.8 6.7 6.4 6.3 6.3 6.4 6.4 6.4 6.4 6.3 6.3 6.4 6.5 6.5 6.4 6.4 6.3 6.3 6.3 6.3 6.3 6.5 6.5
6.8 6.7 6.6 6.3 6.6 6.5 5.9 6.3 6.2 6.4 6.0 6.4 6.4 6.2 6.8 7.4 8.3 8.2 8.0 7.6 7.2 6.7 6.6 6.6 6.2 6.1 6.1 6.2 6.2 6.2 6.1 6.1 6.1 6.1 6.2 6.2 6.2 6.3 6.4 6.4 6.4 6.4 6.5 6.6
6.8 6.8 6.5 6.1 6.4 6.9 6.4 6.0 6.1 5.9 5.8 6.4 6.3 7.2 6.5 6.8 7.4 7.9 8.0 7.8 7.8 7.8 6.9 6.5 6.4 6.3 6.2 6.0 6.1 6.3 6.3 6.3 6.2 6.3 6.4 6.5 6.5 6.5 6.5 6.5 6.4 6.5 6.7 6.8
7.2 7.0 6.0 5.0 6.3 6.7 5.8 6.5 6.7 6.6 6.6 6.5 7.2 7.4 7.0 7.1 7.4 7.5 7.7 7.7 7.5 7.5 7.5 7.0 6.5 6.2 6.3 6.3 6.1 6.1 6.2 6.3 6.4 6.6 6.7 6.6 6.5 6.5 6.5 6.5 6.6 6.7 6.7 6.9
7.3 7.1 5.9 5.2 6.2 6.6 6.3 6.4 6.8 6.2 6.6 6.6 7.0 7.4 7.0 6.6 6.9 7.2 7.5 7.4 7.2 7.2 7.5 7.4 7.1 6.7 6.6 6.5 6.5 6.5 6.6 6.6 6.6 6.6 6.6 6.4 6.2 6.2 6.2 6.3 6.3 6.4 6.4 6.6
7.5 7.3 6.9 5.9 6.4 6.7 7.1 7.0 7.0 6.9 6.0 7.2 7.5 7.5 7.1 6.4 6.5 7.2 7.4 7.1 7.2 7.3 7.3 7.1 7.1 7.1 7.0 6.8 6.8 6.7 6.5 6.3 6.3 6.3 6.4 6.3 6.2 6.1 6.1 6.2 6.3 6.4 6.6 6.8
6.9 6.1 5.5 5.8 6.4 6.6 6.8 6.8 7.2 6.2 7.2 7.8 7.9 7.8 7.5 7.0 7.5 7.3 7.2 7.0 7.2 7.3 7.1 7.2 7.3 7.0 7.0 7.0 6.9 6.7 6.5 6.4 6.4 6.5 6.5 6.6 6.6 6.5 6.6 6.6 6.8 6.8 6.8 6.8
7.9 6.6 6.2 6.2 6.6 6.2 6.7 7.1 7.2 7.4 7.5 7.2 8.2 8.1 7.6 7.5 7.5 7.0 6.6 6.9 6.8 7.0 6.8 7.3 7.3 7.1 6.9 6.8 6.8 6.6 6.6 6.5 6.6 6.4 6.4 6.4 6.5 6.5 6.6 6.7 6.8 6.9 7.0 7.0
6.9 6.6 6.5 6.2 6.4 6.4 6.8 7.3 7.5 7.4 7.6 7.9 7.7 7.6 7.6 7.4 7.6 7.0 6.9 7.1 7.1 7.0 7.3 7.3 7.1 7.0 7.0 6.9 6.7 6.5 6.5 6.6 6.6 6.5 6.4 6.4 6.4 6.4 6.4 6.4 6.5 6.5 6.5 6.6
7.3 6.3 6.2 6.1 6.4 7.0 7.0 7.0 7.1 7.2 7.4 7.0 7.2 7.5 7.5 7.5 7.3 6.6 7.1 7.3 7.2 7.2 7.1 7.1 7.1 7.0 6.9 6.8 6.7 6.6 6.4 6.2 6.2 6.2 6.2 6.3 6.4 6.4 6.5 6.5 6.5 6.5 6.6 6.5
6.6 6.2 6.4 6.0 6.2 6.4 6.4 6.2 6.9 7.1 6.6 6.6 7.0 7.3 6.9 7.0 7.2 6.9 7.0 7.0 6.9 7.0 7.0 6.9 6.8 6.7 6.7 6.5 6.3 6.1 6.1 6.2 6.2 6.3 6.3 6.4 6.4 6.4 6.5 6.6 6.6 6.6 6.6 6.5
6.6 6.5 6.3 6.0 6.0 6.4 6.7 6.7 7.0 6.8 6.6 6.7 6.8 6.7 6.8 6.7 6.8 7.0 7.0 7.0 7.0 6.9 6.8 6.7 6.6 6.3 6.1 6.0 6.1 6.1 6.1 6.1 6.0 6.1 6.2 6.3 6.3 6.3 6.3 6.2 6.1 6.0 6.1 6.2
Wind_Speed
4 5 16 17 6 5 6 5 9 4 10 5 15 20 10 12 5 8 9 8 10 15 18 16 15 14 11 11 13 14 14 14 10 5 8 5 9 6 5 14 19 18 17 20
4 16 15 6 3 4 4 2 4 4 4 7 8 17 15 7 7 9 10 11 10 7 10 11 13 12 15 14 15 15 17 16 13 10 6 4 6 5 9 13 13 18 21 22
15 4 9 10 5 10 9 8 3 5 2 3 2 9 9 7 10 8 10 14 12 14 13 13 15 17 18 17 17 17 18 17 15 14 5 2 3 2 3 3 5 15 19 20
13 6 15 8 15 13 15 8 6 6 2 5 5 8 8 9 15 10 15 13 16 15 14 13 16 17 19 20 17 17 17 17 15 16 12 13 11 11 10 9 8 10 20 20
8 12 15 17 16 12 8 8 13 7 4 3 4 4 6 5 9 14 17 18 18 17 14 15 15 18 18 18 18 17 17 17 16 16 17 13 15 10 7 7 9 10 13 21
7 2 16 11 13 18 9 5 4 3 3 12 11 8 8 11 9 8 12 13 14 13 13 15 15 16 16 17 16 15 17 18 17 16 17 18 18 15 10 8 9 9 9 9
8 15 3 6 11 8 10 9 4 7 7 17 10 9 22 7 8 14 14 14 10 10 9 11 11 12 15 17 18 15 17 18 18 18 17 19 17 16 17 13 10 10 9 8
13 8 16 7 11 6 19 16 5 7 6 9 3 9 7 12 21 21 14 9 6 8 8 9 10 11 15 17 18 18 18 19 17 18 18 16 17 12 12 13 12 11 11 12
7 10 1 10 8 8 8 16 12 3 3 2 6 8 6 8 10 15 15 8 10 9 8 9 9 8 11 13 18 19 17 17 16 17 16 17 17 18 17 18 13 11 12 10
5 2 3 7 9 11 15 7 11 4 5 6 5 6 10 3 13 15 7 9 9 8 7 5 5 4 6 9 12 15 16 18 19 19 17 15 17 17 17 14 15 15 15 13
3 5 1 3 11 20 6 13 9 6 3 5 3 7 7 18 18 19 9 7 7 8 6 4 2 1 1 3 6 5 6 8 8 11 14 13 13 15 15 14 14 16 14 14
15 5 10 14 6 2 14 12 19 10 19 3 1 11 3 8 10 7 7 6 5 6 6 5 3 2 2 4 5 6 7 7 7 6 7 8 10 11 13 14 16 14 14 13
13 8 9 3 3 4 7 15 19 19 2 18 12 10 4 5 0 3 8 7 6 4 5 2 2 3 3 2 2 3 4 6 6 6 6 6 7 8 11 13 12 13 12 13
9 6 10 13 5 5 13 18 18 23 13 22 19 19 8 6 6 5 6 6 6 5 4 2 0 1 1 1 1 1 3 3 4 4 6 7 7 7 6 6 7 7 9 11
6 12 14 14 8 3 11 19 25 24 34 17 26 21 16 12 13 11 11 8 7 7 6 5 3 3 2 3 3 3 4 4 2 4 4 6 5 5 5 6 6 6 6 6
6 7 8 16 13 12 12 16 16 26 29 25 27 18 20 12 6 8 9 9 9 8 7 7 6 5 3 4 4 5 5 3 2 3 4 2 1 2 1 3 4 4 3 3
4 2 7 19 11 14 14 28 24 24 27 30 27 38 6 10 8 9 12 14 13 9 8 7 6 5 3 2 4 5 4 2 1 2 1 1 3 2 2 2 3 3 2 2
5 6 2 8 9 17 23 15 29 31 31 29 29 17 19 15 12 6 8 10 9 8 6 5 4 2 1 2 3 2 3 2 3 3 2 1 1 3 2 1 1 1 1 0
17 8 4 5 12 4 7 9 26 22 32 29 29 31 15 5 5 7 8 4 7 7 6 5 4 3 3 4 3 3 5 4 4 3 2 1 2 2 2 1 0 2 3 3
18 18 8 9 12 9 13 7 18 11 20 32 30 26 24 8 8 16 7 7 7 7 6 7 6 4 5 4 3 6 5 5 6 5 4 2 2 3 2 1 3 2 2 2
7 12 19 16 12 8 5 7 22 15 14 11 25 23 17 17 25 8 10 6 6 4 7 6 7 6 5 4 5 7 6 7 5 4 5 5 4 4 4 3 2 2 2 3
9 6 10 9 7 14 8 20 22 11 1 3 2 14 21 27 11 13 10 9 8 9 7 6 7 7 7 7 6 7 8 5 4 5 6 5 5 4 3 4 3 3 3 3
5 8 4 11 7 2 8 6 3 0 2 2 3 6 16 10 8 10 11 10 7 8 6 5 8 8 8 8 7 7 5 5 4 6 6 5 5 5 4 3 3 2 3 3
5 4 3 3 2 6 11 8 14 7 3 2 2 4 4 10 14 14 11 9 9 7 7 6 8 9 8 7 8 7 6 5 5 6 5 4 5 4 4 3 2 2 1 1
1 8 5 1 5 3 9 16 14 10 9 7 8 7 9 16 13 13 12 9 8 8 6 7 8 7 8 8 8 6 6 4 5 5 5 5 4 4 4 4 3 2 2 1
7 5 4 3 8 7 4 14 16 10 10 10 8 9 10 10 13 13 11 8 8 9 7 8 9 10 6 5 5 6 6 4 4 5 4 3 3 3 3 3 3 8 10 9
Wind_Direction
198 180 206 199 192 205 169 182 213 236 237 192 224 246 235 240 225 235 233 221 217 217 222 213 211 211 208 190 193 198 196 198 186 180 189 192 195 199 205 202 205 204 206 208
173 216 205 182 189 223 240 228 244 283 274 180 260 254 247 233 234 214 219 232 224 228 229 210 209 204 204 200 200 199 204 198 197 198 197 181 191 208 206 208 204 200 203 205
205 226 163 177 178 216 236 221 228 237 280 206 324 267 253 241 240 238 228 226 227 212 216 214 209 204 205 206 203 204 204 200 201 201 167 138 132 113 182 193 206 209 208 207
229 187 178 176 213 197 226 169 215 261 256 233 164 273 245 232 237 221 236 227 230 229 226 212 207 209 207 208 203 207 201 202 201 199 199 202 205 208 215 213 211 207 208 210
190 184 188 201 210 191 220 175 205 219 227 316 221 266 261 210 233 238 237 237 237 238 230 224 212 208 210 205 204 202 201 200 199 201 207 207 212 216 214 212 209 206 208 214
232 315 193 205 197 195 153 88 57 78 154 251 223 218 224 227 219 238 238 237 234 235 235 231 215 205 207 206 206 199 198 203 197 196 204 212 217 216 213 206 209 214 212 211
194 228 272 186 200 187 181 157 205 214 211 240 183 210 247 241 239 227 232 236 232 233 232 233 212 204 205 200 202 199 197 204 199 197 201 210 217 216 220 214 212 211 215 215
212 224 199 165 219 200 200 193 178 201 198 248 104 231 240 221 233 244 249 240 234 241 249 248 232 203 203 201 201 200 199 206 196 199 205 204 210 214 217 215 214 217 217 219
200 225 250 197 176 175 183 212 205 81 10 67 209 274 292 256 262 258 249 225 241 234 242 246 253 217 200 203 205 200 200 205 198 200 204 208 209 212 217 221 216 221 223 223
208 297 236 180 170 230 216 167 200 214 192 231 245 256 233 292 246 250 254 236 249 235 222 241 247 278 221 210 204 203 204 202 200 203 207 212 214 217 221 221 219 219 223 215
188 200 292 123 204 194 184 205 213 189 175 222 257 251 215 217 219 237 227 227 224 197 183 198 206 212 163 157 179 192 201 215 213 213 215 214 216 219 221 221 222 222 222 218
199 231 228 219 175 211 242 216 201 207 215 223 188 250 209 248 252 222 200 189 202 192 171 162 152 143 154 133 153 184 191 199 204 202 208 213 219 215 218 222 225 225 227 223
181 220 232 208 266 206 229 223 207 223 123 223 226 246 329 17 132 176 176 187 199 194 170 166 107 90 93 118 156 186 200 220 221 212 213 224 223 221 224 228 227 227 223 226
187 198 226 227 225 147 209 201 222 211 225 235 228 247 235 245 225 213 215 220 202 215 231 207 260 274 331 339 319 299 284 245 239 217 216 227 227 219 225 232 232 226 224 221
222 231 215 237 260 313 230 219 215 209 224 218 237 233 223 211 203 205 205 203 209 221 227 225 218 232 258 290 293 268 263 274 249 232 234 244 248 248 248 245 240 236 221 221
190 256 219 238 238 228 237 241 234 222 228 231 247 251 221 245 167 193 208 204 217 217 219 221 217 214 229 254 274 287 283 278 218 236 249 281 278 14 15 31 36 47 56 55
130 306 251 257 224 235 237 230 220 231 235 219 229 234 141 221 222 202 205 205 210 206 202 184 180 168 188 282 314 298 297 311 200 181 157 119 96 93 68 79 79 70 68 62
195 205 125 282 245 220 241 222 217 217 223 224 236 246 218 222 233 209 203 187 204 194 181 167 162 167 83 19 1 328 19 90 117 108 102 69 117 145 136 90 90 128 151 106
205 174 180 246 260 291 264 221 197 198 231 224 229 238 223 189 117 250 210 181 163 163 170 174 158 126 85 40 7 67 52 58 69 54 33 21 24 46 78 68 344 14 353 1
195 208 197 227 245 235 247 178 189 183 252 229 227 236 230 147 214 232 149 140 137 147 158 127 106 88 73 12 43 80 59 62 42 12 358 30 128 162 181 77 64 40 50 31
180 209 208 210 240 278 238 187 137 164 241 195 207 219 205 201 220 155 141 134 127 114 100 89 79 72 33 20 70 68 53 36 356 5 30 34 34 36 41 60 46 54 52 52
175 216 202 207 188 247 176 148 164 204 2 95 163 215 209 217 149 143 137 134 124 109 95 90 91 71 38 27 61 59 47 350 7 40 50 38 35 43 48 63 49 48 54 44
202 195 210 206 201 271 180 350 24 352 164 188 224 247 210 158 140 137 132 117 104 105 99 85 94 81 49 40 43 67 16 8 33 61 53 41 37 41 41 56 55 42 27 15
135 341 226 172 19 341 28 359 4 339 45 36 35 81 130 127 130 114 108 107 105 95 99 94 90 74 58 35 45 36 13 16 56 63 51 42 51 40 32 49 55 79 76 35
26 321 332 48 11 318 51 13 336 338 360 32 51 57 102 116 104 115 113 110 104 96 84 79 86 85 59 33 33 13 359 16 62 59 46 41 42 40 35 30 20 14 326 295
357 8 348 39 8 315 359 345 344 21 11 1 40 62 49 93 107 112 101 98 105 104 98 88 72 65 42 24 27 13 2 31 71 66 46 42 44 31 39 32 358 12 24 26